Satellite-Ground Cal/Val Region Overpasses Predictions

Prediction of Satellite NPP Overpassing Cal/Val Region: PacNW

Region Location: (Latitude: 10.00, Longitude: 139.50) to (Latitude: 22.70, Longitude: 165.60).

Table of predicted overpasses for the next 14.0 days since TLE Epoch: 11/6/2021
Interval Starting Time Starting Location Ending Time Ending Location
1 11/07/2021 02:15:56 ( 11.84, 165.59) 11/07/2021 02:19:01 ( 22.69, 162.99)
2 11/07/2021 03:56:55 ( 10.02, 140.63) 11/07/2021 03:58:18 ( 14.89, 139.50)
3 11/07/2021 14:47:19 ( 22.69, 163.25) 11/07/2021 14:50:55 ( 10.01, 160.23)
4 11/08/2021 03:37:54 ( 10.02, 145.39) 11/08/2021 03:41:30 ( 22.70, 142.36)
5 11/08/2021 14:31:09 ( 12.65, 165.60) 11/08/2021 14:31:54 ( 10.01, 164.99)
6 11/08/2021 16:09:48 ( 22.69, 142.63) 11/08/2021 16:13:24 ( 10.01, 139.61)
7 11/09/2021 03:18:54 ( 10.02, 150.14) 11/09/2021 03:22:29 ( 22.64, 147.13)
8 11/09/2021 15:50:48 ( 22.68, 147.39) 11/09/2021 15:54:24 ( 10.01, 144.37)
9 11/10/2021 02:59:53 ( 10.03, 154.89) 11/10/2021 03:03:28 ( 22.65, 151.89)
10 11/10/2021 15:31:47 ( 22.68, 152.14) 11/10/2021 15:35:23 ( 10.00, 149.12)
11 11/11/2021 02:40:53 ( 10.03, 159.65) 11/11/2021 02:44:28 ( 22.65, 156.64)
12 11/11/2021 15:12:47 ( 22.67, 156.89) 11/11/2021 15:16:22 ( 10.05, 153.89)
13 11/12/2021 02:21:52 ( 10.04, 164.40) 11/12/2021 02:25:27 ( 22.66, 161.39)
14 11/12/2021 14:53:46 ( 22.67, 161.65) 11/12/2021 14:57:21 ( 10.05, 158.64)
15 11/13/2021 03:44:22 ( 10.05, 143.78) 11/13/2021 03:47:57 ( 22.67, 140.77)
16 11/13/2021 14:35:42 ( 19.38, 165.59) 11/13/2021 14:38:21 ( 10.04, 163.39)
17 11/13/2021 16:16:16 ( 22.66, 141.02) 11/13/2021 16:18:02 ( 16.44, 139.51)
18 11/14/2021 03:25:21 ( 10.05, 148.53) 11/14/2021 03:28:56 ( 22.67, 145.52)
19 11/14/2021 15:57:15 ( 22.66, 145.78) 11/14/2021 16:00:50 ( 10.04, 142.77)
20 11/15/2021 03:06:20 ( 10.00, 153.30) 11/15/2021 03:09:56 ( 22.68, 150.28)
21 11/15/2021 15:38:15 ( 22.65, 150.53) 11/15/2021 15:41:50 ( 10.03, 147.52)
22 11/16/2021 02:47:20 ( 10.01, 158.05) 11/16/2021 02:50:56 ( 22.69, 155.03)
23 11/16/2021 15:19:13 ( 22.70, 155.30) 11/16/2021 15:22:49 ( 10.02, 152.28)
24 11/17/2021 02:28:19 ( 10.02, 162.80) 11/17/2021 02:31:55 ( 22.70, 159.78)
25 11/17/2021 15:00:13 ( 22.69, 160.05) 11/17/2021 15:03:49 ( 10.01, 157.03)
26 11/18/2021 02:11:42 ( 18.42, 165.59) 11/18/2021 02:12:54 ( 22.65, 164.55)
27 11/18/2021 03:50:49 ( 10.03, 142.18) 11/18/2021 03:54:01 ( 21.30, 139.51)
28 11/18/2021 14:41:12 ( 22.68, 164.80) 11/18/2021 14:44:48 ( 10.00, 161.78)
29 11/19/2021 03:31:48 ( 10.04, 146.93) 11/19/2021 03:35:23 ( 22.66, 143.93)
30 11/19/2021 16:03:42 ( 22.67, 144.18) 11/19/2021 16:07:17 ( 10.05, 141.17)
31 11/20/2021 03:12:48 ( 10.05, 151.69) 11/20/2021 03:16:23 ( 22.67, 148.68)
